Location: Brivio
(45.7333°N, 9.4500°E)
Time: 15:14:08
(UTC+00:00)

N. Korean satellite - Pass Details

Date: 17 December 2019
Orbit: 454 x 508 km, 97.2° (Epoch: 17 January)

Event Time Altitude Azimuth Distance (km) Brightness Sun altitude
Rises 17:20:04 0° 204° (SSW) 2,592 10.9 -16.8°
Reaches altitude 10° 17:22:43 10° 225° (SW) 1,707 10.3 -17.2°
Maximum altitude 17:25:11 17° 268° (W) 1,320 9.8 -17.7°
Drops below altitude 10° 17:27:40 10° 310° (NW) 1,701 9.8 -18.1°
Sets 17:30:19 0° 331° (NNW) 2,579 10.4 -18.5°
